Location: Unspecified
(40.9447°N, 78.9903°W)
Time: 09:17:41
(UTC-04:00)

Resurs 1-4 Rocket - Pass Details

Date: 04 August 2021
Orbit: 799 x 814 km, 98.6° (Epoch: 27 September)

Event Time Altitude Azimuth Distance (km) Brightness Sun altitude
Rises 02:08:42 0° 22° (NNE) 3,334 6.4 -30.9°
Reaches altitude 10° 02:11:14 10° 31° (NNE) 2,396 5.4 -30.8°
Enters shadow 02:15:31 35° 83° (E) 1,282 3.2 -30.6°
